Погода в Андреевичах

Украина / Житомирская область     50°44′04″N   27°53′23″E
темп.,
°C
ветер,
м/с
пор.,
м/с
влажн.,
%
обл.,
%
осадки,
мм/ч
давл.,
гПа
погр.,
м
28 февраля, вс
вс2823:00+1сз6109699 0.1 1024649
02:00+1сз599698 0.3 1025622
05:00−1ссз499498 0.2 1026511
08:000сз599295 0.3 1027761
11:00+1сз6984100 0.0 1026680
14:00+3зсз6107399 0.1 1025955
17:00+1зсз7129796 0.4 1023736
20:00+2зсз6119798 2.4 1022616
1 марта, пн
пн123:00+2ссз5998100 1.4 1022483
02:00+2с5998100 1.8 1024510
05:00+1с5997100 0.1 1026527
08:00+1с4792100 0.2 1029508
11:00+2с358895 0.1 1031490
14:00+4ссз357191 0.1 1032867
17:00+3сз247780 0.0 1031181
20:00+2з368569 0.0 1032186
2 марта, вт
вт223:00+1з489046 0.0 1031163
02:00+1з5109365 0.0 1031284
05:00+1з6129597 0.0 1029323
08:00+1з7149284 0.0 1027460
11:00+5зсз7127724 0.0 1026692
14:00+7зсз7117323 0.0 1025797
17:00+5сз7128027 0.0 1024766
20:00+2сз6138923 0.0 1025574
3 марта, ср
ср323:00+2сз5118985 0.0 1026447
02:00+1сз5109659 0.0 1028313
05:000сз499771 0.0 1028297
08:000сз369484 0.0 1029288
11:00+4сз356889 0.0 1030549
14:00+7сз344854 0.0 1028875
17:00+5сз24590 0.0 1027138
20:00+2з22720 0.0 102722
4 марта, чт
чт423:00+1юз23720 0.0 102629
02:00+1юз367512 0.0 102497
05:00+1юз489311 0.0 1021162
08:00+2юз59906 0.0 1019267
11:00+7зюз6106931 0.0 1017558
14:00+9зюз695916 0.0 1014855
17:00+8зюз5116850 0.0 1012511
20:00+5зюз498457 0.0 1011206